| time (UTC) | temp F | wind direction | speed MPH | gust MPH | rain 1hr in | rain 24hr in | rain mn in | humidity % | barometer mb |
| 20260507210014 | 46 | 257 | 11.0 | 18.0 | 0.00 | 0.00 | 0.00 | 50 | 1010.8 |
| 20260507204513 | 47 | 271 | 14.0 | 20.0 | 0.00 | 0.00 | 0.00 | 52 | 1010.8 |
| 20260507203016 | 47 | 263 | 15.0 | 18.0 | 0.00 | 0.00 | 0.00 | 54 | 1010.9 |
| 20260507201509 | 47 | 271 | 8.0 | 13.0 | 0.00 | 0.00 | 0.00 | 55 | 1010.9 |
| 20260507200008 | 46 | 247 | 5.0 | 13.0 | 0.00 | 0.00 | 0.00 | 58 | 1010.9 |
| 20260507194510 | 46 | 265 | 8.0 | 13.0 | 0.00 | 0.00 | 0.00 | 59 | 1011.0 |
| 20260507193002 | 46 | 278 | 9.0 | 15.0 | 0.00 | 0.00 | 0.00 | 58 | 1011.2 |
| 20260507191600 | 45 | 268 | 11.0 | 15.0 | 0.00 | 0.00 | 0.00 | 59 | 1011.3 |
| 20260507184557 | 45 | 272 | 7.0 | 16.0 | 0.00 | 0.00 | 0.00 | 59 | 1011.5 |
| 20260507183057 | 45 | 284 | 11.0 | 16.0 | 0.00 | 0.00 | 0.00 | 59 | 1011.5 |
| 20260507181555 | 46 | 260 | 9.0 | 15.0 | 0.00 | 0.00 | 0.00 | 60 | 1011.7 |
| 20260507180054 | 45 | 262 | 11.0 | 16.0 | 0.00 | 0.00 | 0.00 | 58 | 1011.8 |
| 20260507174551 | 45 | 266 | 11.0 | 15.0 | 0.00 | 0.00 | 0.00 | 62 | 1011.9 |
| 20260507173123 | 45 | 278 | 11.0 | 15.0 | 0.00 | 0.00 | 0.00 | 61 | 1012.1 |
| 20260507171545 | 44 | 272 | 10.0 | 14.0 | 0.00 | 0.00 | 0.00 | 63 | 1012.2 |
| 20260507170047 | 44 | 260 | 9.0 | 15.0 | 0.00 | 0.00 | 0.00 | 64 | 1012.5 |
| 20260507164542 | 44 | 269 | 9.0 | 14.0 | 0.00 | 0.00 | 0.00 | 64 | 1012.6 |
| 20260507163041 | 44 | 271 | 10.0 | 16.0 | 0.00 | 0.00 | 0.00 | 64 | 1012.6 |
| 20260507161545 | 44 | 274 | 8.0 | 12.0 | 0.00 | 0.00 | 0.00 | 65 | 1012.7 |
| 20260507160038 | 44 | 264 | 8.0 | 13.0 | 0.00 | 0.00 | 0.00 | 66 | 1012.8 |
| 20260507154533 | 43 | 262 | 7.0 | 10.0 | 0.00 | 0.00 | 0.00 | 72 | 1012.9 |
| 20260507153033 | 43 | 273 | 7.0 | 11.0 | 0.00 | 0.00 | 0.00 | 72 | 1012.9 |
| 20260507151532 | 43 | 272 | 7.0 | 10.0 | 0.00 | 0.00 | 0.00 | 72 | 1012.9 |
| 20260507150037 | 42 | 261 | 7.0 | 10.0 | 0.00 | 0.00 | 0.00 | 71 | 1013.1 |
| 20260507144526 | 42 | 266 | 5.0 | 8.0 | 0.00 | 0.00 | 0.00 | 74 | 1013.1 |
| 20260507143025 | 41 | 276 | 3.0 | 7.0 | 0.00 | 0.00 | 0.00 | 76 | 1013.0 |
| 20260507141524 | 41 | 270 | 4.0 | 8.0 | 0.00 | 0.00 | 0.00 | 77 | 1013.1 |
| 20260507140020 | 40 | 263 | 4.0 | 7.0 | 0.00 | 0.00 | 0.00 | 78 | 1013.1 |
| 20260507134519 | 40 | 248 | 4.0 | 8.0 | 0.00 | 0.00 | 0.00 | 79 | 1013.1 |
| 20260507133020 | 39 | 263 | 2.0 | 6.0 | 0.00 | 0.00 | 0.00 | 81 | 1013.0 |
| 20260507131516 | 39 | 259 | 3.0 | 5.0 | 0.00 | 0.00 | 0.00 | 83 | 1013.0 |
| 20260507130015 | 39 | 274 | 1.0 | 5.0 | 0.00 | 0.00 | 0.00 | 83 | 1013.0 |
| 20260507124514 | 38 | 255 | 4.0 | 7.0 | 0.00 | 0.00 | 0.00 | 83 | 1012.9 |
| 20260507123014 | 37 | 252 | 3.0 | 6.0 | 0.00 | 0.00 | 0.00 | 85 | 1012.8 |
| 20260507121512 | 36 | 234 | 3.0 | 6.0 | 0.00 | 0.00 | 0.00 | 84 | 1013.0 |
| 20260507120011 | 35 | 248 | 0.0 | 3.0 | 0.00 | 0.00 | 0.00 | 86 | 1012.9 |
| 20260507114510 | 34 | 242 | 0.0 | 0.0 | 0.00 | 0.00 | 0.00 | 91 | 1012.7 |
| 20260507113012 | 32 | 115 | 0.0 | 0.0 | 0.00 | 0.00 | 0.00 | 92 | 1012.6 |
| 20260507111510 | 30 | 115 | 0.0 | 0.0 | 0.00 | 0.00 | 0.00 | 92 | 1012.6 |
| 20260507110009 | 29 | 115 | 0.0 | 0.0 | 0.00 | 0.00 | 0.00 | 92 | 1012.5 |
| 20260507104508 | 28 | 115 | 0.0 | 0.0 | 0.00 | 0.00 | 0.00 | 91 | 1012.4 |
| 20260507103007 | 29 | 115 | 0.0 | 0.0 | 0.00 | 0.00 | 0.00 | 91 | 1012.4 |
| 20260507101507 | 29 | 115 | 0.0 | 0.0 | 0.00 | 0.00 | 0.00 | 91 | 1012.4 |
| 20260507100006 | 29 | 115 | 0.0 | 0.0 | 0.00 | 0.00 | 0.00 | 90 | 1012.4 |
| 20260507094504 | 30 | 115 | 0.0 | 0.0 | 0.00 | 0.00 | 0.00 | 90 | 1012.4 |
| 20260507093005 | 30 | 116 | 0.0 | 0.0 | 0.00 | 0.00 | 0.00 | 91 | 1012.6 |
| 20260507091505 | 30 | 116 | 0.0 | 0.0 | 0.00 | 0.00 | 0.00 | 91 | 1012.7 |
| 20260507090007 | 30 | 101 | 0.0 | 0.0 | 0.00 | 0.00 | 0.00 | 91 | 1012.7 |
| 20260507084602 | 30 | 101 | 0.0 | 0.0 | 0.00 | 0.00 | 0.00 | 92 | 1012.7 |
| 20260507083100 | 29 | 102 | 0.0 | 0.0 | 0.00 | 0.00 | 0.00 | 91 | 1012.7 |
| 20260507081600 | 29 | 101 | 0.0 | 0.0 | 0.00 | 0.00 | 0.00 | 91 | 1012.8 |
| 20260507080059 | 28 | 101 | 0.0 | 0.0 | 0.00 | 0.00 | 0.00 | 91 | 1012.8 |
| 20260507074558 | 28 | 101 | 0.0 | 0.0 | 0.00 | 0.00 | 0.00 | 90 | 1012.9 |
| 20260507073104 | 29 | 101 | 0.0 | 0.0 | 0.00 | 0.00 | 0.00 | 90 | 1013.0 |
| 20260507071554 | 29 | 102 | 0.0 | 0.0 | 0.00 | 0.00 | 0.00 | 90 | 1013.1 |
| 20260507070058 | 29 | 102 | 0.0 | 0.0 | 0.00 | 0.00 | 0.00 | 89 | 1013.1 |
| 20260507064554 | 29 | 102 | 0.0 | 0.0 | 0.00 | 0.00 | 0.00 | 90 | 1013.4 |
| 20260507063049 | 29 | 102 | 0.0 | 0.0 | 0.00 | 0.00 | 0.00 | 89 | 1013.4 |
| 20260507061548 | 29 | 102 | 0.0 | 0.0 | 0.00 | 0.00 | 0.00 | 88 | 1013.4 |
| 20260507060048 | 30 | 101 | 0.0 | 0.0 | 0.00 | 0.00 | 0.00 | 87 | 1013.4 |
| 20260507054543 | 31 | 101 | 0.0 | 0.0 | 0.00 | 0.00 | 0.00 | 87 | 1013.5 |
| 20260507053041 | 31 | 102 | 0.0 | 0.0 | 0.00 | 0.00 | 0.00 | 84 | 1013.5 |
| 20260507051536 | 33 | 101 | 0.0 | 0.0 | 0.00 | 0.00 | 0.00 | 80 | 1013.6 |
| 20260507050033 | 36 | 252 | 0.0 | 3.0 | 0.00 | 0.00 | 0.00 | 75 | 1013.6 |
| 20260507044528 | 38 | 253 | 0.0 | 3.0 | 0.00 | 0.00 | 0.00 | 71 | 1013.7 |
| 20260507043026 | 38 | 275 | 2.0 | 4.0 | 0.00 | 0.00 | 0.00 | 72 | 1013.8 |
| 20260507041524 | 38 | 259 | 0.0 | 2.0 | 0.00 | 0.00 | 0.00 | 73 | 1013.9 |
| 20260507040021 | 39 | 272 | 2.0 | 5.0 | 0.00 | 0.00 | 0.00 | 72 | 1013.9 |
| 20260507034522 | 39 | 276 | 2.0 | 5.0 | 0.00 | 0.00 | 0.00 | 74 | 1013.9 |
| 20260507033028 | 39 | 257 | 2.0 | 4.0 | 0.00 | 0.00 | 0.00 | 71 | 1013.8 |
| 20260507031524 | 40 | 254 | 1.0 | 4.0 | 0.00 | 0.00 | 0.00 | 69 | 1013.9 |
| 20260507030019 | 40 | 262 | 1.0 | 5.0 | 0.00 | 0.00 | 0.00 | 67 | 1013.7 |
| 20260507024516 | 40 | 264 | 1.0 | 4.0 | 0.00 | 0.00 | 0.00 | 66 | 1013.8 |
| 20260507023016 | 40 | 244 | 0.0 | 4.0 | 0.00 | 0.00 | 0.00 | 66 | 1013.8 |
| 20260507021515 | 40 | 250 | 2.0 | 5.0 | 0.00 | 0.00 | 0.00 | 61 | 1013.7 |
| 20260507020017 | 40 | 267 | 2.0 | 4.0 | 0.00 | 0.00 | 0.00 | 62 | 1013.7 |
| 20260507014513 | 41 | 264 | 3.0 | 4.0 | 0.00 | 0.00 | 0.00 | 64 | 1013.7 |
| 20260507013011 | 41 | 275 | 2.0 | 4.0 | 0.00 | 0.00 | 0.00 | 63 | 1013.5 |
| 20260507011524 | 41 | 260 | 3.0 | 6.0 | 0.00 | 0.00 | 0.00 | 62 | 1013.4 |
| 20260507010010 | 41 | 263 | 0.0 | 3.0 | 0.00 | 0.00 | 0.00 | 62 | 1013.3 |
| 20260507004508 | 41 | 275 | 0.0 | 5.0 | 0.00 | 0.00 | 0.00 | 63 | 1013.4 |
| 20260507003008 | 41 | 271 | 3.0 | 8.0 | 0.00 | 0.00 | 0.00 | 60 | 1013.2 |
| 20260507001509 | 42 | 256 | 0.0 | 9.0 | 0.00 | 0.00 | 0.00 | 61 | 1013.2 |
| 20260507000007 | 42 | 254 | 2.0 | 8.0 | 0.00 | 0.00 | 0.00 | 64 | 1013.2 |
| 20260506234506 | 42 | 248 | 2.0 | 8.0 | 0.00 | 0.00 | 0.00 | 65 | 1013.2 |
| 20260506233005 | 42 | 278 | 6.0 | 10.0 | 0.00 | 0.00 | 0.00 | 64 | 1013.2 |
| 20260506231505 | 42 | 268 | 8.0 | 11.0 | 0.00 | 0.00 | 0.00 | 61 | 1013.2 |
| 20260506230007 | 42 | 272 | 7.0 | 11.0 | 0.00 | 0.00 | 0.00 | 64 | 1013.2 |
| 20260506224503 | 42 | 276 | 7.0 | 12.0 | 0.00 | 0.00 | 0.00 | 59 | 1013.2 |
| 20260506223003 | 42 | 266 | 6.0 | 11.0 | 0.00 | 0.00 | 0.00 | 65 | 1013.2 |
| 20260506221502 | 42 | 261 | 8.0 | 12.0 | 0.00 | 0.00 | 0.00 | 61 | 1013.2 |
| 20260506220002 | 42 | 260 | 10.0 | 14.0 | 0.00 | 0.00 | 0.00 | 62 | 1013.2 |
| 20260506214501 | 42 | 259 | 9.0 | 16.0 | 0.00 | 0.00 | 0.00 | 62 | 1013.2 |
| 20260506213107 | 42 | 271 | 10.0 | 17.0 | 0.00 | 0.00 | 0.00 | 62 | 1013.2 |
| 20260506211601 | 42 | 264 | 12.0 | 17.0 | 0.00 | 0.00 | 0.00 | 64 | 1013.1 |